Location: Newark
(34.6283°N, 36.0776°E)
Time: 15:22:06
(UTC+00:00)

S-56A Canister/Altair - Pass Details

Date: 19 October 2019
Orbit: 634 x 2498 km, 38.9° (Epoch: 11 November)

Event Time Altitude Azimuth Distance (km) Brightness Sun altitude
Rises 08:57:40 0° 278° (W) 5,623 11.8 45.1°
Reaches altitude 10° 09:03:20 10° 260° (W) 4,887 11.8 45.2°
Maximum altitude 09:10:36 16° 228° (SW) 4,598 12.1 45.4°
Drops below altitude 10° 09:18:17 10° 197° (SSW) 5,149 12.7 45.4°
Sets 09:24:42 0° 178° (S) 6,068 12.9 45.4°
